Regional Weather Roundup
Issued by NWS Grand Forks, ND

Home | Current Version | Previous Version | Graphics & Text | Print | Product List | Glossary On
Versions: 1 2 3 4 5 6 7 8 9 10 11 12 13 14 15 16 17 18 19 20 21 22 23 24 25 26 27 28 29 30 31 32 33 34 35 36 37 38 39 40 41 42 43 44 45 46 47 48 49 50
494
ASUS43 KFGF 251931
RWRFGF
PRAIRIE TO PINES  WEATHER ROUNDUP
NATIONAL WEATHER SERVICE EASTERN NORTH DAKOTA/GRAND FORKS ND
200 PM CDT SUN SEP 25 2016

 **SATELLITE DATA USED TO AUGMENT SKY COVER AT AUTOMATED STATIONS**
 *****  WEATHER ACROSS EASTERN NORTH DAKOTA  *****

CITY           SKY/WX    TMP DP  RH WIND       PRES   REMARKS
GRAND FORKS    CLOUDY    56  49  77 NW24G31   29.80R
GRAND FRKS AFB LGT RAIN  57  46  67 NW29G40   29.82R
DEVILS LAKE    CLOUDY    55  45  68 NW28G38   29.90R
FARGO          CLOUDY    59  51  75 NW23G30   29.86R
WAHPETON ARPT  CLOUDY    59  45  58 NW24G37   29.91R
$$

 ***** WEATHER ACROSS CENTRAL AND WESTERN NORTH DAKOTA  *****

CITY           SKY/WX    TMP DP  RH WIND       PRES   REMARKS
BISMARCK       MOSUNNY   63  35  35 NW26G43   30.11R
MINOT          MOSUNNY   63  37  38 W29G49    30.04S
JAMESTOWN      PTSUNNY   59  44  57 NW31G40   29.95R
MINOT AFB      SUNNY     61  36  39 NW36G49   30.01F
GARRISON         N/A     60  37  42 NW28G41   30.09S
WILLISTON      SUNNY     62  31  31 NW32G43   30.19F
DICKINSON      SUNNY     58  31  35 NW29G40   30.19F
HETTINGER      SUNNY     61  33  35 NW29G37   30.24F
$$

 *****  OTHER AIRPORT OBSERVATIONS IN OUR AREA  *****

CITY           SKY/WX    TMP DP  RH WIND       PRES   REMARKS
WALHALLA       LGT RAIN  54  48  82 NW18G32   29.79R
GRAFTON AIRPOR CLOUDY    54  52  94 NW24G36   29.80R
VALLEY CITY AR LGT RAIN  59  45  58 NW37G45   29.94S
CANDO          FAIR      55  43  62 NW28G33   29.93S
CAVALIER APRT  CLOUDY    54  50  87 NW22G33   29.78R
GWINNER        CLOUDY    61  45  55 NW21G35   29.96S
SHEYENNE NWR     N/A     61  45  56 NW22      29.95S
ROLLA          FAIR      54  39  58 NW24G35   29.92S
 ***** THE ABOVE OBSERVATIONS ARE NON NWS ARE NOT QUALITY
       CONTROLLED AND MAY MIS-REPORT RAIN FOR SNOW...
$$

  *****  WEATHER ACROSS NORTHERN MINNESOTA  *****

CITY           SKY/WX    TMP DP  RH WIND       PRES   REMARKS
FLAG ISLAND    CLOUDY    59  52  77 SW15      29.61F
WARROAD        CLOUDY    59  54  82 SW10G16   29.65F
ROSEAU         CLOUDY    59  54  82 W9G16     29.65F
HALLOCK        CLOUDY    55  54  94 NW20G29   29.73R FOG
THF RVR FALLS  LGT RAIN  54  52  94 W15G26    29.77R FOG
BAUDETTE       CLOUDY    59  50  72 SW12      29.66F
WASKISH        CLOUDY    57  54  88 SW12G17   29.70F
CROOKSTON      HVY RAIN  54  54 100 NW20G29   29.80R
STEPHEN NDAWN    N/A     54  52  94 NW17        N/A
GREENBUSH NDAW   N/A     54  54 100 W16         N/A
$$
  *****  WEATHER ACROSS CENTRAL AND WEST MINNESOTA  *****

CITY           SKY/WX    TMP DP  RH WIND       PRES   REMARKS
FOSSTON        DRIZZLE   52  50  93 W20G25    29.79R
BEMIDJI        CLOUDY    56  53  89 SW12G20   29.75S
PARK RAPIDS    CLOUDY    57  50  77 W21G31    29.81R
ELBOW LAKE     CLOUDY    58  49  72 NW22G29   29.91R
WADENA         CLOUDY    55  52  88 W17G25    29.84R HAZE
DETROIT LAKES  LGT RAIN  54  52  94 NW23G30   29.87R
MOORHEAD       PTSUNNY   57  50  77 NW21      29.88R
FERGUS FALLS   CLOUDY    57  50  77 NW15G28   29.91R
MORRIS MN      CLOUDY    61  50  67 NW21G30   29.92S
STAPLES        CLOUDY    55  54  94 W16G24    29.84R FOG
$$
  *****  WEATHER ELSEWHERE ACROSS MINNESOTA  *****

CITY           SKY/WX    TMP DP  RH WIND       PRES   REMARKS
DULUTH         MOSUNNY   69  58  67 SW23G29   29.77S
INTRNTL FALLS  CLOUDY    63  54  72 SW10G21   29.67R
ELY            PTSUNNY   66  61  82 S7        29.70F
CLOQUET        CLOUDY    61  52  72 SW18G30   29.80R
WHEATON        CLOUDY    61  52  72 W13G21    29.94S
BRAINERD       CLOUDY    59  52  77 SW17G23   29.82F
HIBBING        CLOUDY    61  52  72 SW12G24   29.75R
ALEXANDRIA     CLOUDY    58  52  80 W18G26    29.89R
SAINT CLOUD    CLOUDY    61  58  90 W9        29.87R
MINNEAPOLIS    CLOUDY    63  51  65 SW10G21   29.91S
$$

  *****  WEATHER ACROSS SOUTH DAKOTA  *****

CITY           SKY/WX    TMP DP  RH WIND       PRES   REMARKS
SIOUX FALLS    CLOUDY    62  49  62 NW24G32   30.06S
BROOKINGS      CLOUDY    58  48  69 NW25      30.02R
WATERTOWN      CLOUDY    59  47  64 NW23G33   30.00S
HURON          PTSUNNY   68  41  37 NW24G33   30.06S
SISSETON         N/A     62  46  55 NW25G33   29.94R
ABERDEEN       CLOUDY    65  42  43 NW30G37   30.03S
MITCHELL       PTSUNNY   68  42  38 NW24G33   30.10S
PIERRE         SUNNY     65  33  30 NW35G45   30.17R
MOBRIDGE       SUNNY     66  35  31 NW29G37   30.11R
RAPID CITY     SUNNY     62  27  26 NW25G39   30.32F
$$

  *****  SOME WEATHER IN NEARBY STATES *****

CITY           SKY/WX    TMP DP  RH WIND       PRES   REMARKS
GLASGOW MT     SUNNY     64  32  30 NW17      30.26F
GREAT FALLS MT SUNNY     63  34  33 SW16G25   30.33F
CHEYENNE WY    MOSUNNY   59  28  30 NW10G22   30.43F
SCOTTSBLUFF NE PTSUNNY   62  36  37 NW14G21   30.39F
OMAHA NE       PTSUNNY   70  49  47 NW18      30.11F
DES MOINES IA  CLOUDY    67  52  58 W17       30.05F
DAVENPORT IA   MOSUNNY   84  64  50 SW14G21   29.96F
CHICAGO IL     PTSUNNY   83  66  56 S13G18    29.97F
EAU CLAIRE WI  CLOUDY    68  56  65 SW15G25   29.88S
LA CROSSE WI   CLOUDY    77  65  66 SW14G20   29.89F
$$

  *****  SOME NATIONAL WEATHER *****

CITY           SKY/WX    TMP DP  RH WIND       PRES   REMARKS
LA GUARDIA NY  MOSUNNY   69  33  26 N8G17     30.14F
RALEIGH NC     CLOUDY    72  67  84 E5        30.14F FOG
ATLANTA GA     MOSUNNY   90  58  33 SE5       30.07F
NEW ORLEANS LA MOSUNNY   91  76  61 NW5       30.01F HX 103
OKLAHOMA CITY  CLOUDY    67  61  81 N25G31    30.14R
ALBUQUERQUE NM MOSUNNY   71  36  27 E24G33    30.32F
SALT LAKE CITY SUNNY     62  44  51 N12       30.47S
LOS ANGELES CA SUNNY     92  31  11 W8        29.98F
BOISE ID       SUNNY     67  35  30 W6        30.46F
SEATTLE WA     CLOUDY    69  49  48 W6        30.41S
$$

*** WEATHER ACROSS MANITOBA...SASKATCHEWAN AND ONTARIO ***
                ***ONTARIO***

CITY           SKY/WX    TMP DP  RH WIND       PRES   REMARKS
GERALDTON      CLOUDY    63  52  67 S14G22    29.92F
THUNDER BAY    LGT RAIN  61  61 100 E10       29.78F FOG
SIOUX LOOKOUT  PTSUNNY   63  61  94 S9G18     29.66F
TORONTO        PTSUNNY   64  43  45 SE9       30.20F
BIG TROUT LK   CLOUDY    61  52  72 SE13G20   29.72F
PICKLE LAKE    LGT RAIN  57  55  94 SE13G24   29.71F FOG
DRYDEN         PTSUNNY   66  63  88 SE15      29.62F
KENORA         PTSUNNY   63  55  77 S10G18    29.61F
$$
                *** MANITOBA***

CITY           SKY/WX    TMP DP  RH WIND       PRES   REMARKS
BRANDON        PTSUNNY   54  45  71 NW22G32   29.90R
DAUPHIN        MOSUNNY   57  46  67 NW21G28   29.84S
ISLAND LAKE    NOT AVBL
PILOT MOUND      N/A     50  46  87 NW24G36     N/A
THE PAS        PTSUNNY   55  45  67 NW18G29   29.82S
THOMPSON       LGT RAIN  50  50 100 NW13G21   29.65R
WINNIPEG       LGT RAIN  54  52  94 NW25G31   29.71R
LYNN LAKE      CLOUDY    50  48  93 NW14G22   29.77F
CHURCHILL      LGT RAIN  46  45  93 SE15G22   29.65F FOG
GILLAM         DRIZZLE   54  52  94 SE3       29.56S
$$
                ***SASKATCHEWAN***

CITY           SKY/WX    TMP DP  RH WIND       PRES   REMARKS
ESTEVAN        MOSUNNY   61  37  41 NW30G40   30.10S
KINDERSLEY     MOSUNNY   61  32  33 W13       30.22F
LLOYDMINSTER   MOSUNNY   59  34  38 W15G23    30.18F
PRINCE ALBERT  MOSUNNY   61  34  36 NW23G37   30.05F
REGINA         MOSUNNY   61  32  33 NW31G39   30.14S
YORKTON        MOSUNNY   59  36  41 NW33G43   29.98R
N. BATTLEFORD  SUNNY     61  30  31 NW15G21   30.19F
LA RONGE       MOSUNNY   57  39  51 W18G37    29.97S
SASKATOON      MOSUNNY   63  34  34 NW22G29   30.16S
SWIFT CURRENT  SUNNY     61  34  36 W15G21    30.22F
$$
NOTE: THESE ARE AUTOMATED STATIONS WITH LIMITED QUALITY CONTROL
      "FAIR" INDICATES FEW OR NO CLOUDS BELOW 12,000 FEET WITH NO
      SIGNIFICANT WEATHER AND/OR OBSTRUCTIONS TO VISIBILITY.
      SKY/WX - SKY CONDITION AND SIGNIFICANT WEATHER.
      TMP - AIR TEMPERATURE.    DP   - DEWPOINT TEMPERATURE.
      RH  - RELATIVE HUMIDITY.  PRES - PRESSURE.
      HX  - HEAT INDEX.         WCI  - WIND CHILL INDEX.
$




USA.gov is the U.S. government's official web portal to all federal, state and local government web resources and services.